METEOR 1-5 DEB

Satellite information

Favourite Embed

Satellite Type and Status

DEBRISIN ORBIT

Key statistics

Satellite METEOR 1-5 DEB at a glance.

Uptime

20163

Days in orbit

Revolutions

≈ 14.2

Per day

Orbit

LEO

Low Earth Orbit

Inclination

81.2

Latest

Satellite identification and parameters

Extended collection of information and parameters for METEOR 1-5 DEB.

Object identification

Identified? True

Debris? True

Object name: METEOR 1-5 DEB

International designator: 1970-047D

Object number (NORAD): 58397

Object ID (CCSDS): 58397

Country: COMMONWEALTH OF INDEPENDENT STATES (CIS)

Current information (Y/N): Y

RCS size: SMALL

Orbital parameters

Period: 101.685 minutes

Inclination: 81.2189 deg

SMA: 7216.56 km

Apoapsis: 860.089 km

Periapsis: 816.762 km

RAAN: 159.8226 deg

Eccentricy: 0.0030019

Argument of periapsis: 151.4212 deg

Mean anomaly: 208.8616 deg

Mean motion: 14.1614394 rev/day

Mean motion (dot): 0.00001192 rev/day2

B* drag term: 0.00059437105 1/REarth

Two-line elements (TLE)

Creation date: Sept. 3, 2025, 2:21 a.m.

Reference frame: TEME

Reference center: EARTH

Epoch: Sept. 2, 2025, 6:54 p.m. UTC

TLE line 0: 0 METEOR 1-5 DEB

TLE line 1: 1 58397U 70047D 25245.78770342 .00001192 00000-0 59437-3 0 9990

TLE line 2: 2 58397 81.2189 159.8226 0030019 151.4212 208.8616 14.16143940 95766

Live tracking on map

Real-time ground track for satellite METEOR 1-5 DEB.

In-orbit conjunctions

A list of the most updated potential collisions computed for object METEOR 1-5 DEB.

Target Orbit TCA Probability of collision Miss distance Type
THOR BURNER 2 R/B SSO 2024-12-15 15:08:30 0.0001402006 165.0 (m) ROCKET BODY
FENGYUN 1C DEB SSO 2024-11-07 08:58:03 0.000322281 57.0 (m) DEBRIS
THOR BURNER 2 R/B SSO 2024-06-03 21:31:58 0.001432262 89.0 (m) ROCKET BODY

Associated space launch

The Meteor-1 series was the first series of Soviet meteorological satellites.

METEOR 1-5 DEB was lifted into orbit during the mission ‘Vostok 8A92M | Meteor-1 5 (17L)’, on board a Vostok 8A92M space rocket.

The launch took place on June 23, 1970, 2:15 p.m. from 41/1.

For more information about the launch, click the button.

Launch to space Vostok 8A92M | Meteor-1 5 (17L)
Vostok 8A92M | Meteor-1 5 (17L)

Agency: N/A

Status: Launch Successful

Launch date: June 23, 1970, 2:15 p.m. UTC

Rocket: Vostok 8A92M

Launch pad: 41/1

Location: Plesetsk Cosmodrome, Russian Federation

...

Latest news about this satellite

There are no fresh news available about this satellite. Check back as we update our databases every day.


Newsletter sign-up

Weekly statistics, charts and insights to help you stay on top of the space industry.